Weather History for KLDJ - June, 2013

Change the Weather History Date:

Friday, June 28, 2013

  Actual Average (KEWR) Record (KEWR)
Temperature  
Mean Temperature 81 °F 76 °F  
Max Temperature 88 °F 85 °F 99 °F (1993)
Min Temperature 74 °F 67 °F 53 °F (1970)
Degree Days  
Heating Degree Days 0 0  
Month to date heating degree days 15  
Since 1 June heating degree days 15  
Since 1 July heating degree days 4870  
Cooling Degree Days 16 11  
Month to date cooling degree days 216  
Year to date cooling degree days 292  
Since 1 June cooling degree days 216  
Growing Degree Days 31 (Base 50)    
Moisture  
Dew Point 69 °F    
Average Humidity 70    
Maximum Humidity 90    
Minimum Humidity 43    
Precipitation  
Precipitation 0.00 in 0.13 in 1.27 in (1983)
Month to date precipitation 3.78  
Year to date precipitation 22.67  
Snow  
Snow 0.00 in 0.00 in 0.00 in (2002)
Month to date snowfall 0.0  
Since 1 July snowfall 28.5  
Snow Depth -    
Sea Level Pressure  
Sea Level Pressure 29.52 in    
Wind  
Wind Speed 6 mph (SW)    
Max Wind Speed 12 mph    
Max Gust Speed 18 mph    
Visibility 10 miles    
Events Rain    
T = Trace of Precipitation, MM = Missing Value Source: NWS Daily Summary

Daily Weather History Graph

Daily Weather History Graph

Search for Another Location

Airport or City:

Trip Planner

Search our weather history database for the weather conditions in past years. The results will help you decide how hot, cold, wet, or windy it might be!

Date:

Astronomy

Jun. 28, 2013 Rise Set
Actual Time 5:28 AM EDT 8:31 PM EDT
Civil Twilight 4:55 AM EDT 9:05 PM EDT
Nautical Twilight 4:12 AM EDT 9:47 PM EDT
Astronomical Twilight 3:23 AM EDT 10:37 PM EDT
Moon 11:57 PM EDT (6/28) 11:35 AM EDT (6/28)
Length of Visible Light 16h 09m
Length of Day
15h 03m
Waning Gibbous, 66% of the Moon is Illuminated
Jun 28
Waning Gibbous
Jun 30
Last Quarter
Jul 8
New
Jul 15
First Quarter
Jul 22
Full

Hourly Weather History & Observations

Time (EDT) Temp. Heat Index Dew Point Humidity Pressure Visibility Wind Dir Wind Speed Gust Speed Precip Events Conditions
12:15 AM 76.1 °F - 72.1 °F 87% 29.57 in 7.0 mi SW 6.9 mph - N/A   Scattered Clouds
12:35 AM 75.7 °F - 71.8 °F 87% 29.57 in 10.0 mi SW 4.6 mph - N/A   Clear
12:55 AM 75.6 °F - 71.8 °F 88% 29.57 in 10.0 mi SW 5.8 mph - N/A   Clear
1:15 AM 75.7 °F - 72.1 °F 89% 29.57 in 10.0 mi WSW 6.9 mph - N/A   Scattered Clouds
1:35 AM 75.7 °F - 72.0 °F 88% 29.56 in 10.0 mi SW 6.9 mph - N/A   Clear
1:55 AM 76.1 °F - 72.0 °F 87% 29.55 in 10.0 mi South 4.6 mph - N/A   Clear
2:35 AM 75.7 °F - 71.8 °F 87% 29.55 in 10.0 mi South 4.6 mph - N/A   Clear
2:55 AM 75.7 °F - 71.6 °F 87% 29.55 in 10.0 mi SSW 4.6 mph - N/A   Scattered Clouds
3:15 AM 75.7 °F - 71.6 °F 87% 29.54 in 10.0 mi SSW 5.8 mph - N/A   Scattered Clouds
3:35 AM 75.4 °F - 71.1 °F 86% 29.54 in 10.0 mi SSW 3.5 mph - N/A   Scattered Clouds
3:55 AM 75.2 °F - 71.1 °F 87% 29.54 in 10.0 mi SSW 3.5 mph - N/A   Scattered Clouds
4:15 AM 75.2 °F - 71.1 °F 87% 29.54 in 10.0 mi SSW 3.5 mph - N/A   Scattered Clouds
4:35 AM 74.7 °F - 71.1 °F 88% 29.53 in 10.0 mi SSW 4.6 mph - N/A   Scattered Clouds
4:55 AM 74.5 °F - 71.1 °F 89% 29.53 in 10.0 mi SSW 5.8 mph - N/A   Clear
5:15 AM 74.3 °F - 71.1 °F 90% 29.53 in 10.0 mi SSW 3.5 mph - N/A   Clear
5:35 AM 74.3 °F - 71.1 °F 90% 29.54 in 10.0 mi SW 3.5 mph - N/A   Scattered Clouds
5:55 AM 74.5 °F - 71.1 °F 89% 29.54 in 10.0 mi Calm Calm - N/A   Scattered Clouds
6:15 AM 74.7 °F - 71.2 °F 89% 29.54 in 10.0 mi Calm Calm - N/A   Scattered Clouds
6:35 AM 74.7 °F - 71.1 °F 88% 29.55 in 10.0 mi Calm Calm - N/A   Scattered Clouds
6:55 AM 75.4 °F - 71.4 °F 87% 29.55 in 10.0 mi SSW 3.5 mph - N/A   Mostly Cloudy
7:15 AM 76.5 °F - 71.6 °F 85% 29.55 in 10.0 mi Calm Calm - N/A   Mostly Cloudy
7:35 AM 76.6 °F - 71.4 °F 84% 29.55 in 10.0 mi WSW 4.6 mph - N/A   Overcast
7:55 AM 77.0 °F - 71.1 °F 82% 29.55 in 10.0 mi WSW 6.9 mph - N/A   Mostly Cloudy
8:55 AM 78.8 °F - 69.8 °F 74% 29.54 in 10.0 mi WSW 5.8 mph - N/A   Mostly Cloudy
9:15 AM 79.0 °F - 70.0 °F 74% 29.53 in 10.0 mi WSW 5.8 mph - N/A   Overcast
9:35 AM 79.9 °F - 70.2 °F 72% 29.52 in 10.0 mi West 5.8 mph - N/A   Scattered Clouds
9:55 AM 79.0 °F - 69.6 °F 73% 29.52 in 10.0 mi West 11.5 mph - N/A   Mostly Cloudy
10:15 AM 79.3 °F - 69.4 °F 72% 29.52 in 10.0 mi West 9.2 mph - N/A   Mostly Cloudy
10:35 AM 79.7 °F - 69.6 °F 71% 29.52 in 10.0 mi West 8.1 mph - N/A   Mostly Cloudy
10:55 AM 80.1 °F 82.9 °F 69.1 °F 69% 29.52 in 10.0 mi West 9.2 mph - N/A   Mostly Cloudy
11:15 AM 81.3 °F 84.6 °F 69.4 °F 67% 29.53 in 10.0 mi West 10.4 mph - N/A   Scattered Clouds
11:35 AM 81.1 °F 84.4 °F 69.1 °F 67% 29.53 in 10.0 mi West 10.4 mph - N/A   Scattered Clouds
11:55 AM 82.9 °F 85.6 °F 67.5 °F 59% 29.54 in 10.0 mi West 9.2 mph - N/A   Mostly Cloudy
12:15 PM 82.6 °F 85.5 °F 67.8 °F 61% 29.54 in 10.0 mi West 10.4 mph 16.1 mph N/A   Overcast
12:35 PM 82.8 °F 85.8 °F 68.0 °F 61% 29.53 in 10.0 mi West 9.2 mph - N/A   Mostly Cloudy
12:55 PM 83.5 °F 86.2 °F 67.5 °F 58% 29.53 in 10.0 mi WSW 3.5 mph - N/A   Scattered Clouds
1:15 PM 83.7 °F 86.5 °F 67.5 °F 58% 29.53 in 10.0 mi WSW 9.2 mph - N/A   Scattered Clouds
1:35 PM 85.6 °F 88.2 °F 66.7 °F 53% 29.53 in 10.0 mi WSW 5.8 mph - N/A   Scattered Clouds
1:55 PM 86.0 °F 89.1 °F 67.5 °F 54% 29.52 in 10.0 mi WSW 6.9 mph - N/A   Scattered Clouds
2:15 PM 86.5 °F 89.3 °F 67.3 °F 52% 29.52 in 10.0 mi WNW 5.8 mph - N/A   Mostly Cloudy
2:35 PM 85.5 °F 87.6 °F 66.0 °F 52% 29.51 in 10.0 mi West 10.4 mph 17.3 mph N/A   Mostly Cloudy
2:55 PM 87.3 °F 89.5 °F 66.0 °F 49% 29.51 in 10.0 mi WSW 9.2 mph 16.1 mph N/A   Scattered Clouds
3:15 PM 88.0 °F 90.7 °F 66.4 °F 49% 29.51 in 10.0 mi West 10.4 mph - N/A   Scattered Clouds
3:35 PM 87.1 °F 89.5 °F 66.6 °F 50% 29.50 in 10.0 mi WSW 5.8 mph - N/A   Scattered Clouds
3:55 PM 88.2 °F 90.6 °F 66.0 °F 48% 29.49 in 10.0 mi WSW 3.5 mph - N/A   Scattered Clouds
4:15 PM 88.9 °F 90.0 °F 63.7 °F 43% 29.48 in 10.0 mi WSW 9.2 mph - N/A   Scattered Clouds
4:35 PM 86.9 °F 89.6 °F 66.7 °F 51% 29.48 in 10.0 mi South 6.9 mph - N/A   Scattered Clouds
4:55 PM 86.5 °F 89.3 °F 66.9 °F 52% 29.49 in 10.0 mi South 6.9 mph - N/A   Scattered Clouds
5:15 PM 86.0 °F 89.1 °F 67.6 °F 54% 29.49 in 10.0 mi WSW 5.8 mph - N/A   Clear
5:35 PM 85.5 °F 88.5 °F 67.5 °F 55% 29.48 in 10.0 mi SSW 3.5 mph - N/A   Clear
5:55 PM 85.1 °F 88.2 °F 67.8 °F 56% 29.48 in 10.0 mi Calm Calm - N/A   Clear
6:15 PM 85.1 °F 88.2 °F 67.8 °F 56% 29.49 in 10.0 mi South 4.6 mph - N/A   Clear
6:35 PM 86.5 °F 89.6 °F 67.8 °F 53% 29.49 in 10.0 mi Calm Calm - N/A   Clear
6:55 PM 85.6 °F 88.8 °F 67.6 °F 55% 29.49 in 10.0 mi South 4.6 mph - N/A   Clear
7:15 PM 84.4 °F 87.3 °F 67.6 °F 57% 29.48 in 10.0 mi SSW 3.5 mph - N/A   Clear
7:35 PM 83.8 °F 87.3 °F 68.5 °F 60% 29.49 in 10.0 mi South 4.6 mph - N/A Rain Light Rain
7:55 PM 81.0 °F 84.2 °F 69.6 °F 68% 29.50 in 10.0 mi SW 3.5 mph - N/A Rain Light Rain
8:15 PM 79.7 °F - 68.2 °F 68% 29.49 in 10.0 mi SW 3.5 mph - N/A   Light Drizzle
8:35 PM 79.3 °F - 65.7 °F 63% 29.52 in 10.0 mi SW 8.1 mph - N/A   Clear
8:55 PM 78.3 °F - 65.8 °F 65% 29.52 in 10.0 mi WSW 5.8 mph 16.1 mph N/A   Clear
9:15 PM 77.2 °F - 65.8 °F 68% 29.52 in 10.0 mi West 10.4 mph - N/A   Scattered Clouds
9:35 PM 76.8 °F - 66.2 °F 70% 29.52 in 10.0 mi SW 3.5 mph - N/A   Mostly Cloudy
9:55 PM 76.3 °F - 66.4 °F 71% 29.53 in 10.0 mi WSW 9.2 mph - N/A   Mostly Cloudy
10:15 PM 75.7 °F - 67.1 °F 74% 29.54 in 10.0 mi West 10.4 mph 18.4 mph N/A   Scattered Clouds
10:35 PM 75.4 °F - 66.6 °F 74% 29.54 in 10.0 mi West 9.2 mph - N/A   Clear
10:55 PM 75.4 °F - 65.8 °F 72% 29.53 in 10.0 mi WSW 8.1 mph - N/A   Clear
11:15 PM 75.6 °F - 65.5 °F 71% 29.52 in 10.0 mi WSW 5.8 mph - N/A   Clear
11:35 PM 75.7 °F - 65.3 °F 70% 29.52 in 10.0 mi West 6.9 mph - N/A   Clear
11:55 PM 76.1 °F - 64.8 °F 68% 29.52 in 10.0 mi WSW 5.8 mph - N/A   Clear